DLH2280 EDDM-LFKB

Flight info

Callsign DLH2280
Flight time N/A
Altitude 37000
Route TURBU7S/26L TURBU Y107 TOBSO DCT BAKOR DCT OSBUL DCT OLETI M858 LIGUR
Aircraft A320/M-SDE3FGHIRWY/LB1

Departure

Time N/A
Airport Munich Airport (EDDM)

Arrival

Time 2026-05-06 17:39
Airport Bastia-Poretta International airport (LFKB)
Time Latitude Longitude Altitude Speed Heading
2026-05-06 17:04 44.79108 10.25291 36854 ft 382 kts 224°
2026-05-06 17:05 44.75205 10.20203 36847 ft 382 kts 223°
2026-05-06 17:05 44.71290 10.15142 36844 ft 382 kts 223°
2026-05-06 17:06 44.67340 10.10183 36863 ft 381 kts 218°
2026-05-06 17:06 44.65255 10.07979 36729 ft 381 kts 218°
2026-05-06 17:06 44.63125 10.05790 36469 ft 378 kts 217°
2026-05-06 17:06 44.60990 10.03634 36203 ft 377 kts 217°
2026-05-06 17:07 44.58856 10.01494 35949 ft 377 kts 217°
2026-05-06 17:07 44.56730 9.99363 35702 ft 376 kts 217°
2026-05-06 17:07 44.54604 9.97225 35455 ft 377 kts 217°
2026-05-06 17:07 44.52477 9.95075 35201 ft 377 kts 217°
2026-05-06 17:08 44.50348 9.92919 34960 ft 377 kts 217°
2026-05-06 17:08 44.48231 9.90777 34546 ft 375 kts 217°
2026-05-06 17:08 44.46130 9.88652 34106 ft 370 kts 217°
2026-05-06 17:08 44.44050 9.86549 33651 ft 366 kts 217°
2026-05-06 17:09 44.42024 9.84501 33174 ft 362 kts 217°
2026-05-06 17:09 44.39990 9.82447 32716 ft 359 kts 217°
2026-05-06 17:09 44.37968 9.80410 32271 ft 356 kts 217°
2026-05-06 17:09 44.35976 9.78404 31827 ft 353 kts 217°
2026-05-06 17:10 44.33989 9.76411 31400 ft 350 kts 217°
2026-05-06 17:10 44.32023 9.74440 30969 ft 347 kts 217°
2026-05-06 17:10 44.30063 9.72475 30548 ft 345 kts 217°
2026-05-06 17:10 44.28125 9.70532 30148 ft 342 kts 217°
2026-05-06 17:11 44.26192 9.68597 29695 ft 340 kts 217°
2026-05-06 17:11 44.24277 9.66682 29206 ft 338 kts 217°
2026-05-06 17:11 44.22370 9.64771 28733 ft 336 kts 217°
2026-05-06 17:11 44.20476 9.62874 28258 ft 334 kts 217°
2026-05-06 17:12 44.18588 9.60986 27804 ft 333 kts 217°
2026-05-06 17:12 44.16710 9.59111 27352 ft 331 kts 217°
2026-05-06 17:12 44.14840 9.57250 26911 ft 330 kts 217°
2026-05-06 17:12 44.12977 9.55397 26480 ft 329 kts 217°
2026-05-06 17:13 44.11120 9.53550 26042 ft 327 kts 217°
2026-05-06 17:13 44.09273 9.51716 25624 ft 326 kts 217°
2026-05-06 17:13 44.07302 9.50242 25206 ft 329 kts 202°
2026-05-06 17:13 44.05085 9.49285 24796 ft 329 kts 201°
2026-05-06 17:14 44.02899 9.48368 24384 ft 328 kts 201°
2026-05-06 17:14 44.00741 9.47472 23988 ft 327 kts 201°
2026-05-06 17:14 43.98560 9.46570 23606 ft 326 kts 201°
2026-05-06 17:14 43.96391 9.45673 23200 ft 324 kts 201°
2026-05-06 17:15 43.94237 9.44778 22735 ft 321 kts 201°
2026-05-06 17:15 43.92107 9.43891 22274 ft 319 kts 201°
2026-05-06 17:15 43.89990 9.43012 21822 ft 317 kts 201°
2026-05-06 17:15 43.87881 9.42133 21379 ft 315 kts 201°
2026-05-06 17:16 43.85788 9.41262 20947 ft 314 kts 201°
2026-05-06 17:16 43.83699 9.40395 20502 ft 312 kts 201°
2026-05-06 17:16 43.81618 9.39533 20076 ft 312 kts 201°
2026-05-06 17:16 43.79536 9.38670 19652 ft 311 kts 201°
2026-05-06 17:17 43.77493 9.37823 19243 ft 310 kts 201°
2026-05-06 17:17 43.75429 9.36967 18836 ft 309 kts 201°
2026-05-06 17:17 43.73369 9.36115 18490 ft 308 kts 201°
2026-05-06 17:17 43.71317 9.35268 18194 ft 308 kts 201°
2026-05-06 17:18 43.69263 9.34420 17894 ft 307 kts 201°
2026-05-06 17:18 43.67223 9.33577 17572 ft 307 kts 201°
2026-05-06 17:18 43.65178 9.32735 17248 ft 306 kts 201°
2026-05-06 17:18 43.63126 9.31950 16920 ft 308 kts 194°
2026-05-06 17:19 43.60994 9.31591 16613 ft 309 kts 191°
2026-05-06 17:19 43.58886 9.31273 16307 ft 308 kts 191°
2026-05-06 17:19 43.56754 9.30955 15988 ft 307 kts 191°
2026-05-06 17:19 43.54631 9.30643 15699 ft 307 kts 190°
2026-05-06 17:20 43.52510 9.30333 15404 ft 306 kts 190°
2026-05-06 17:20 43.50403 9.30025 15107 ft 305 kts 190°
2026-05-06 17:20 43.48295 9.29713 14814 ft 304 kts 189°
2026-05-06 17:20 43.46197 9.29401 14522 ft 303 kts 189°
2026-05-06 17:21 43.44105 9.29090 14218 ft 302 kts 189°
2026-05-06 17:21 43.42016 9.28784 13918 ft 301 kts 189°
2026-05-06 17:21 43.39937 9.28481 13643 ft 300 kts 189°
2026-05-06 17:21 43.37868 9.28177 13325 ft 299 kts 189°
2026-05-06 17:22 43.35833 9.27877 13008 ft 298 kts 189°
2026-05-06 17:22 43.33777 9.27576 12694 ft 297 kts 189°
2026-05-06 17:22 43.31723 9.27279 12382 ft 296 kts 189°
2026-05-06 17:22 43.29681 9.26984 12073 ft 295 kts 189°
2026-05-06 17:23 43.27645 9.26687 11760 ft 294 kts 188°
2026-05-06 17:23 43.25617 9.26391 11482 ft 292 kts 189°
2026-05-06 17:23 43.23596 9.26097 11219 ft 292 kts 189°
2026-05-06 17:23 43.21576 9.25805 10970 ft 292 kts 189°
2026-05-06 17:24 43.19561 9.25516 10733 ft 291 kts 188°
2026-05-06 17:24 43.17551 9.25228 10490 ft 290 kts 189°
2026-05-06 17:24 43.15573 9.24942 10251 ft 289 kts 189°
2026-05-06 17:24 43.13571 9.24653 10010 ft 289 kts 189°
2026-05-06 17:25 43.11584 9.24367 9902 ft 283 kts 189°
2026-05-06 17:25 43.09652 9.24090 9914 ft 278 kts 189°
2026-05-06 17:25 43.07731 9.23809 9917 ft 277 kts 189°
2026-05-06 17:25 43.05817 9.23528 9917 ft 277 kts 189°
2026-05-06 17:26 43.03907 9.23256 9915 ft 277 kts 187°
2026-05-06 17:26 43.01983 9.23543 9662 ft 281 kts 164°
2026-05-06 17:26 43.00158 9.24513 9604 ft 283 kts 162°
2026-05-06 17:26 42.98349 9.25492 9534 ft 283 kts 162°
2026-05-06 17:27 42.96519 9.26478 9467 ft 283 kts 162°
2026-05-06 17:27 42.94687 9.27464 9401 ft 282 kts 162°
2026-05-06 17:27 42.92859 9.28448 9336 ft 282 kts 162°
2026-05-06 17:27 42.91037 9.29429 9270 ft 282 kts 162°
2026-05-06 17:28 42.89220 9.30409 9206 ft 281 kts 162°
2026-05-06 17:28 42.87401 9.31387 9139 ft 281 kts 162°
2026-05-06 17:28 42.85609 9.32351 9078 ft 281 kts 162°
2026-05-06 17:28 42.83792 9.33328 9000 ft 281 kts 162°
2026-05-06 17:29 42.81971 9.34306 8937 ft 282 kts 162°
2026-05-06 17:29 42.80172 9.35272 8872 ft 282 kts 162°
2026-05-06 17:29 42.78353 9.36251 8805 ft 281 kts 161°
2026-05-06 17:29 42.76532 9.37231 8740 ft 281 kts 161°
2026-05-06 17:30 42.74712 9.38208 8671 ft 280 kts 161°
2026-05-06 17:30 42.72901 9.39180 8574 ft 279 kts 161°
2026-05-06 17:30 42.71096 9.40146 8368 ft 278 kts 161°
2026-05-06 17:30 42.69301 9.41106 8137 ft 277 kts 161°
2026-05-06 17:31 42.67507 9.42064 7918 ft 276 kts 161°
2026-05-06 17:31 42.65742 9.43081 7680 ft 276 kts 155°
2026-05-06 17:31 42.64105 9.44379 7460 ft 277 kts 150°
2026-05-06 17:31 42.62481 9.45846 7230 ft 277 kts 149°
2026-05-06 17:32 42.60883 9.47304 6996 ft 276 kts 149°
2026-05-06 17:32 42.59314 9.48735 6781 ft 275 kts 148°
2026-05-06 17:32 42.57710 9.50192 6519 ft 273 kts 148°
2026-05-06 17:32 42.56151 9.51599 6231 ft 272 kts 148°
2026-05-06 17:33 42.54577 9.53015 5883 ft 271 kts 149°
2026-05-06 17:33 42.53016 9.54421 5361 ft 267 kts 149°
2026-05-06 17:33 42.51475 9.55808 4865 ft 265 kts 149°
2026-05-06 17:33 42.49944 9.57182 4372 ft 263 kts 148°
2026-05-06 17:34 42.48439 9.58512 3919 ft 254 kts 148°
2026-05-06 17:34 42.46967 9.59744 3468 ft 243 kts 158°
2026-05-06 17:34 42.45370 9.60251 3025 ft 233 kts 176°
2026-05-06 17:34 42.43788 9.59991 2565 ft 230 kts 206°
2026-05-06 17:35 42.42619 9.58626 2396 ft 221 kts 242°
2026-05-06 17:35 42.42200 9.56774 2379 ft 202 kts 271°
2026-05-06 17:35 42.42476 9.54999 2413 ft 191 kts 297°
2026-05-06 17:36 42.44431 9.52902 2021 ft 181 kts 343°
2026-05-06 17:36 42.45627 9.52406 1797 ft 177 kts 345°
2026-05-06 17:36 42.46759 9.51934 1574 ft 163 kts 344°
2026-05-06 17:36 42.47804 9.51498 1361 ft 151 kts 343°
2026-05-06 17:37 42.48766 9.51096 1167 ft 140 kts 343°
2026-05-06 17:37 42.49681 9.50710 960 ft 135 kts 345°
2026-05-06 17:37 42.50565 9.50337 784 ft 132 kts 345°
2026-05-06 17:37 42.51441 9.49975 639 ft 133 kts 344°
2026-05-06 17:38 42.52319 9.49610 433 ft 136 kts 346°
2026-05-06 17:38 42.53298 9.49200 269 ft 141 kts 345°
2026-05-06 17:38 42.54224 9.48809 63 ft 140 kts 343°
2026-05-06 17:38 42.55038 9.48471 37 ft 83 kts 341°
2026-05-06 17:39 42.55462 9.48290 35 ft 54 kts 343°
2026-05-06 17:39 42.55756 9.48171 27 ft 36 kts 344°
2026-05-06 17:39 42.55926 9.48101 26 ft 18 kts 343°
2026-05-06 17:39 42.55960 9.47987 25 ft 12 kts 252°
2026-05-06 17:40 42.55922 9.47877 28 ft 13 kts 225°
2026-05-06 17:40 42.55845 9.47875 30 ft 10 kts 161°
2026-05-06 17:40 42.55787 9.47902 27 ft 7 kts 163°
2026-05-06 17:40 42.55706 9.47934 29 ft 19 kts 163°
2026-05-06 17:41 42.55627 9.47967 31 ft 17 kts 163°
2026-05-06 17:41 42.55537 9.48004 32 ft 14 kts 163°
2026-05-06 17:41 42.55454 9.48039 35 ft 11 kts 162°
2026-05-06 17:41 42.55380 9.48070 35 ft 13 kts 163°
2026-05-06 17:42 42.55257 9.48121 34 ft 22 kts 163°
2026-05-06 17:42 42.55113 9.48182 35 ft 20 kts 164°
2026-05-06 17:42 42.55002 9.48228 35 ft 10 kts 161°
2026-05-06 17:42 42.54936 9.48236 35 ft 9 kts 175°
2026-05-06 17:43 42.54881 9.48257 35 ft 8 kts 162°
2026-05-06 17:43 42.54803 9.48290 35 ft 14 kts 162°
2026-05-06 17:43 42.54718 9.48326 35 ft 12 kts 162°
2026-05-06 17:43 42.54642 9.48358 35 ft 11 kts 162°
2026-05-06 17:44 42.54585 9.48382 35 ft 7 kts 163°
2026-05-06 17:44 42.54560 9.48386 35 ft 0 kts 191°
2026-05-06 17:44 42.54558 9.48344 35 ft 9 kts 302°
2026-05-06 17:44 42.54569 9.48310 35 ft 4 kts 284°
2026-05-06 17:45 42.54572 9.48290 35 ft 3 kts 282°
2026-05-06 17:45 42.54575 9.48270 35 ft 0 kts 282°